DMSP 5D-2 F13 DEB, 42306

Orbit data source: Space-Track

DMSP 5D-2 F13 DEB, 42306 is space debris in SSO originally from a launch on Fri, 24 Mar 1995 UTC launched from the Air Force Western Test Range (AFWTR). Debris objects in space refer to the collection of defunct objects orbiting the Earth. Examples of debris include non-operational satellites, rocket bodies, and fragments generated from explosions, collisions, or faulty payload assembly.

Loading next visibility...
Identifier
42306, 1995-015HY
Orbit
SSO
Country
Flag of USUS
Related business
Manufacturer
Unknown
Mission
Spacecraft
Bus & Motor
Unknown
Mass
Unknown
Launch date (UTC)
1995-03-24 (30 years ago)
Launch vehicle
Unknown
Launch site
Air Force Western Test Range (AFWTR)
Object type
Payload
Rocket body
Debris
Shape & HBR
Unknown
Radar Cross Section
Small (<0.1 m²)

Expand to show TLE details & history
Last TLE update: 1 week ago

TLE from 1 week ago
0 DMSP 5D-2 F13 DEB
1 42306U 95015HY  25235.19845400  .00204171  00000-0  86744-2 0  9999
2 42306  98.6567 321.0272 0013321 250.7989 109.1802 15.22057499523123
Epoch: 2025-08-23T04:45Z
TLE epoch observation values (Epoch: 2025-08-23T04:45:46.425Z)
Latitude
-0.00005°
Longitude
-82.15289°
Altitude
505.711 km
Speed
7.61 km/s
True Right ascension
21h 24m 06s
True Declination
0° 00' 00"
Sunlit
Object was in full shadow at epoch
Visualization orbit readout
Latitude
Unknown
Longitude
Unknown
Altitude
Unknown
Speed
Unknown
Apparent Right ascension
Unknown
Apparent Declination
Unknown
Sunlit
N/A
Visualization observer readout
Local Sidereal Time
02:25:05
Azimuth
Unknown
Elevation
Unknown
Doppler factor
Unknown
Orbital elements
Apogee altitude
505.814 km
Perigee altitude
487.499 km
Semi-major axis
6,874.793 km
Eccentricity
0.00133
Inclination
98.6567°
RAAN
321.0272°
Arg. of periapsis
250.7989°
True anomaly
109.32429°
Mean anomaly
109.1802°
Eccentric anomaly
109.25226°
Mean motion
3.80762 °/min
Orbital period
94.55 mins
BSTAR
0.0086744
Loading maneuver chart data...
Computing Atmospheric mass density...

Documentation

Showing up to 5 results
|